Regional Weather Roundup
Issued by NWS Northern Indiana

Home | Current Version | Previous Version | Text Only | Print | Product List | Glossary Off
Versions: 1 2 3 4 5 6 7 8 9 10 11 12 13 14 15 16 17 18 19 20 21 22 23 24 25 26 27 28 29 30 31 32 33 34 35 36 37 38 39 40 41 42 43 44 45 46 47 48 49 50

000
ASUS43 KIWX 021200
RWRIWX

KIWX WEATHER ROUNDUP
NATIONAL WEATHER SERVICE NORTHERN INDIANA
700 AM EST MON MAR 02 2015

NOTE: "FAIR" INDICATES FEW OR NO CLOUDS BELOW 12,000 FEET WITH NO
SIGNIFICANT WEATHER AND/OR OBSTRUCTIONS TO VISIBILITY.

* THESE STATIONS ARE NOT UNDER NWS QUALITY CONTROL. THEY ALSO MAY NOT
  REPORT WEATHER SUCH AS PRECIPITATION OR FOG.

INZ001>027-021300-
NORTHERN INDIANA

CITY           SKY/WX    TMP DP  RH WIND       PRES   REMARKS
GARY*          CLEAR     14   5  67 W8        30.47R WCI   3
KNOX*            N/A      5  -4  66 W9        30.45R WCI  -9
SOUTH BEND     PTCLDY    11   6  81 W8        30.43R WCI  -1
6HR MIN TEMP:  11; 6HR MAX TEMP:  19;

ELKHART*       CLEAR     10   5  79 SW5       30.42  WCI   2
GOSHEN         PTCLDY     9   5  84 W7        30.42R WCI  -2
6HR MIN TEMP:   9; 6HR MAX TEMP:  18;

MONTICELLO*    MOCLDY     4   2  90 W5        30.47R WCI  -5
6HR MIN TEMP:   2; 6HR MAX TEMP:  16;

ANGOLA*        CLEAR     10   9  92 SW3       30.38R
FORT WAYNE     MOCLDY     7   4  87 W7        30.43R WCI  -5
6HR MIN TEMP:   3; 6HR MAX TEMP:  16;


$$
INZ028>050-021300-
CENTRAL INDIANA

CITY           SKY/WX    TMP DP  RH WIND       PRES   REMARKS
LAFAYETTE      MOCLDY    11   8  88 CALM      30.49R
6HR MIN TEMP:  10; 6HR MAX TEMP:  17;

KOKOMO*        CLOUDY     9   1  72 W6        30.46R WCI  -1
6HR MIN TEMP:   9; 6HR MAX TEMP:  18;

MUNCIE*        MOCLDY    14   9  80 W5        30.44S WCI   6
6HR MIN TEMP:  14; 6HR MAX TEMP:  19;

INDIANAPOLIS   MOCLDY    15   8  73 NW5       30.47R WCI   8
6HR MIN TEMP:  15; 6HR MAX TEMP:  22;


$$
MIZ043>046-050>051-056>058-064>065-071>073-077>080-021300-
SOUTHWEST LOWER MICHIGAN

CITY           SKY/WX    TMP DP  RH WIND       PRES   REMARKS
BATTLE CREEK   CLEAR     16   8  71 W7        30.37R WCI   6
6HR MIN TEMP:  15; 6HR MAX TEMP:  24; 6HR PCP: TRACE;

BENTON HARBOR  PTCLDY    21  15  78 NW8       30.41R WCI  11
6HR MIN TEMP:  20; 6HR MAX TEMP:  23;

COLDWATER*     PTCLDY    11   6  79 SW5       30.38R WCI   3
6HR MIN TEMP:  11; 6HR MAX TEMP:  22;

HILLSDALE*     CLEAR     15  11  81 W7        30.34R WCI   6
6HR MIN TEMP:  15; 6HR MAX TEMP:  22;

HOLLAND        PTCLDY    23  14  68 W6        30.39R WCI  16
6HR MIN TEMP:  23; 6HR MAX TEMP:  27;

GRAND RAPIDS   PTCLDY    16   9  74 W7        30.37R WCI   6
6HR MIN TEMP:  15; 6HR MAX TEMP:  24; 6HR PCP: TRACE;

KALAMAZOO      PTCLDY    17  10  74 W6        30.38R WCI   9
6HR MIN TEMP:  17; 6HR MAX TEMP:  24;

STURGIS*       PTCLDY    10   9  92 CALM      30.39R FOG
THREE RIVERS*  FAIR      12   6  77 SW3       30.40R

$$
OHZ001>008-015>018-024>025-021300-
NORTHWEST OHIO

CITY           SKY/WX    TMP DP  RH WIND       PRES   REMARKS
DEFIANCE       PTCLDY    13   9  84 W6        30.42R WCI   4
6HR MIN TEMP:  13; 6HR MAX TEMP:  23;

FINDLAY        CLEAR     14  10  84 W12       30.40R WCI   0
6HR MIN TEMP:  14; 6HR MAX TEMP:  23;

TOLEDO EXPRESS CLEAR     10   7  87 W12       30.39R FOG     WCI  -5
6HR MIN TEMP:   9; 6HR MAX TEMP:  22;

TOLEDO METCALF CLEAR     15  10  80 SW9       30.40R WCI   3
6HR MIN TEMP:  14; 6HR MAX TEMP:  24;

LIMA           MOCLDY    12   8  84 W9        30.41R FOG     WCI   0
6HR MIN TEMP:  12; 6HR MAX TEMP:  23;


$$
AND FOR LAKE MICHIGAN COASTAL AND OPEN LAKE BUOY OBSERVATIONS

STATION/POSITION TEMP    WIND        PRES    VSBY  WAVE
                 AIR SEA DIR/SP/G                  HT/PER
                 (F)     (DEG/KT/KT) (MB)    (MI)  (FT/S)
CALUMET HARBOR    17     260/  5/  7 1029.9R
MICHIGAN CITY     18     240/ 11/ 13   N/A
SAINT JOSEPH      22     280/  8/ 11 1030.1R

$$
&&


USA.gov is the U.S. government's official web portal to all federal, state and local government web resources and services.